Time,TemperatureF,DewpointF,PressureIn,WindDirection,WindDirectionDegrees,WindSpeedMPH,WindSpeedGustMPH,Humidity,HourlyPrecipIn,Conditions,Clouds,dailyrainin,SoftwareType,DateUTC
2013-06-10 00:01:00,58.8,52.3,29.83,West,272,0.0,0.0,79,0.00,,,0.00,VWS V14.01,2013-06-10 04:01:00,
2013-06-10 00:06:00,58.8,52.7,29.83,West,272,0.0,0.0,80,0.00,,,0.00,VWS V14.01,2013-06-10 04:06:00,
2013-06-10 00:11:00,58.8,52.7,29.83,West,272,0.0,0.0,80,0.00,,,0.00,VWS V14.01,2013-06-10 04:11:00,
2013-06-10 00:16:00,58.6,52.5,29.83,West,272,0.0,0.0,80,0.00,,,0.00,VWS V14.01,2013-06-10 04:16:00,
2013-06-10 00:21:00,58.6,52.5,29.83,West,272,0.0,0.0,80,0.00,,,0.00,VWS V14.01,2013-06-10 04:21:00,
2013-06-10 00:26:00,58.5,52.7,29.83,West,272,0.0,0.0,81,0.00,,,0.00,VWS V14.01,2013-06-10 04:26:00,
2013-06-10 00:31:00,58.5,52.7,29.83,West,272,0.0,0.0,81,0.00,,,0.00,VWS V14.01,2013-06-10 04:31:00,
2013-06-10 00:36:00,58.5,52.7,29.83,West,272,0.0,0.0,81,0.00,,,0.00,VWS V14.01,2013-06-10 04:36:00,
2013-06-10 00:41:00,58.3,52.5,29.83,West,272,0.0,0.0,81,0.00,,,0.00,VWS V14.01,2013-06-10 04:41:00,
2013-06-10 00:46:00,58.3,52.8,29.83,West,272,0.0,0.0,82,0.00,,,0.00,VWS V14.01,2013-06-10 04:46:00,
2013-06-10 00:51:00,58.1,52.6,29.83,West,272,0.0,0.0,82,0.00,,,0.00,VWS V14.01,2013-06-10 04:51:00,
2013-06-10 00:56:00,58.1,52.6,29.83,West,272,0.0,0.0,82,0.00,,,0.00,VWS V14.01,2013-06-10 04:56:00,
2013-06-10 01:02:00,58.1,52.6,29.83,West,272,0.0,0.0,82,0.00,,,0.00,VWS V14.01,2013-06-10 05:02:00,
2013-06-10 01:07:00,58.1,52.6,29.83,West,272,0.0,0.0,82,0.00,,,0.00,VWS V14.01,2013-06-10 05:07:00,
2013-06-10 01:12:00,57.9,52.8,29.83,West,272,0.0,0.0,83,0.00,,,0.00,VWS V14.01,2013-06-10 05:12:00,
2013-06-10 01:17:00,57.9,52.8,29.83,West,272,0.0,0.0,83,0.00,,,0.00,VWS V14.01,2013-06-10 05:17:00,
2013-06-10 01:22:00,57.9,52.8,29.83,West,272,0.0,0.0,83,0.00,,,0.00,VWS V14.01,2013-06-10 05:22:00,
2013-06-10 01:27:00,57.9,52.8,29.83,West,272,0.0,0.0,83,0.00,,,0.00,VWS V14.01,2013-06-10 05:27:00,
2013-06-10 01:32:00,57.7,52.6,29.83,West,272,0.0,0.0,83,0.00,,,0.00,VWS V14.01,2013-06-10 05:32:00,
2013-06-10 01:37:00,57.7,52.6,29.83,West,272,0.0,0.0,83,0.00,,,0.00,VWS V14.01,2013-06-10 05:37:00,
2013-06-10 01:42:00,57.6,52.8,29.83,West,272,0.0,0.0,84,0.00,,,0.00,VWS V14.01,2013-06-10 05:42:00,
2013-06-10 01:47:00,57.6,52.8,29.83,West,272,0.0,0.0,84,0.00,,,0.00,VWS V14.01,2013-06-10 05:47:00,
2013-06-10 01:52:00,57.6,52.8,29.83,West,272,0.0,0.0,84,0.00,,,0.00,VWS V14.01,2013-06-10 05:52:00,
2013-06-10 01:57:00,57.6,52.8,29.83,West,272,0.0,0.0,84,0.00,,,0.00,VWS V14.01,2013-06-10 05:57:00,
2013-06-10 02:02:00,57.6,52.8,29.83,West,272,0.0,0.0,84,0.00,,,0.00,VWS V14.01,2013-06-10 06:02:00,
2013-06-10 02:07:00,57.4,52.6,29.83,West,272,0.0,0.0,84,0.00,,,0.00,VWS V14.01,2013-06-10 06:07:00,
2013-06-10 02:12:00,57.4,52.6,29.83,West,272,0.0,0.0,84,0.00,,,0.00,VWS V14.01,2013-06-10 06:12:00,
2013-06-10 02:17:00,57.4,52.9,29.83,West,272,0.0,0.0,85,0.00,,,0.00,VWS V14.01,2013-06-10 06:17:00,
2013-06-10 02:22:00,57.4,52.9,29.83,West,272,0.0,0.0,85,0.00,,,0.00,VWS V14.01,2013-06-10 06:22:00,
2013-06-10 02:27:00,57.4,52.9,29.83,West,272,0.0,0.0,85,0.00,,,0.00,VWS V14.01,2013-06-10 06:27:00,
2013-06-10 02:32:00,57.4,52.9,29.83,West,272,0.0,0.0,85,0.00,,,0.00,VWS V14.01,2013-06-10 06:32:00,
2013-06-10 02:37:00,57.4,52.9,29.83,West,272,0.0,0.0,85,0.00,,,0.00,VWS V14.01,2013-06-10 06:37:00,
2013-06-10 02:42:00,57.4,53.2,29.83,West,272,0.0,0.0,86,0.00,,,0.00,VWS V14.01,2013-06-10 06:42:00,
2013-06-10 02:47:00,57.2,53.1,29.83,West,272,0.0,0.0,86,0.00,,,0.00,VWS V14.01,2013-06-10 06:47:00,
2013-06-10 02:52:00,57.2,53.1,29.83,West,272,0.0,0.0,86,0.00,,,0.00,VWS V14.01,2013-06-10 06:52:00,
2013-06-10 02:57:00,57.0,53.2,29.83,West,272,0.0,0.0,87,0.00,,,0.00,VWS V14.01,2013-06-10 06:57:00,
2013-06-10 03:02:00,57.0,53.2,29.83,West,272,0.0,0.0,87,0.00,,,0.00,VWS V14.01,2013-06-10 07:02:00,
2013-06-10 03:07:00,56.8,53.0,29.83,West,272,0.0,0.0,87,0.00,,,0.00,VWS V14.01,2013-06-10 07:07:00,
2013-06-10 03:12:00,56.8,53.0,29.83,West,272,0.0,0.0,87,0.00,,,0.00,VWS V14.01,2013-06-10 07:12:00,
2013-06-10 03:17:00,56.8,53.0,29.83,West,272,0.0,0.0,87,0.00,,,0.00,VWS V14.01,2013-06-10 07:17:00,
2013-06-10 03:22:00,56.7,52.8,29.83,West,272,0.0,0.0,87,0.00,,,0.00,VWS V14.01,2013-06-10 07:22:00,
2013-06-10 03:27:00,56.7,53.2,29.83,West,272,0.0,0.0,88,0.00,,,0.00,VWS V14.01,2013-06-10 07:27:00,
2013-06-10 03:32:00,56.7,53.2,29.83,West,272,0.0,0.0,88,0.00,,,0.00,VWS V14.01,2013-06-10 07:32:00,
2013-06-10 03:37:00,56.7,53.2,29.83,West,272,0.0,0.0,88,0.00,,,0.00,VWS V14.01,2013-06-10 07:37:00,
2013-06-10 03:42:00,56.5,53.0,29.83,West,272,0.0,0.0,88,0.00,,,0.00,VWS V14.01,2013-06-10 07:42:00,
2013-06-10 03:47:00,56.5,53.0,29.83,West,272,0.0,0.0,88,0.00,,,0.00,VWS V14.01,2013-06-10 07:47:00,
2013-06-10 03:52:00,56.5,53.0,29.83,West,272,0.0,0.0,88,0.00,,,0.00,VWS V14.01,2013-06-10 07:52:00,
2013-06-10 03:57:00,56.5,53.0,29.83,West,272,0.0,0.0,88,0.00,,,0.00,VWS V14.01,2013-06-10 07:57:00,
2013-06-10 04:02:00,56.3,53.1,29.83,West,272,0.0,0.0,89,0.00,,,0.00,VWS V14.01,2013-06-10 08:02:00,
2013-06-10 04:07:00,56.3,53.1,29.83,West,272,0.0,0.0,89,0.00,,,0.00,VWS V14.01,2013-06-10 08:07:00,
2013-06-10 04:12:00,56.3,53.1,29.83,West,272,0.0,0.0,89,0.00,,,0.00,VWS V14.01,2013-06-10 08:12:00,
2013-06-10 04:17:00,56.3,53.1,29.83,West,272,0.0,0.0,89,0.00,,,0.00,VWS V14.01,2013-06-10 08:17:00,
2013-06-10 04:22:00,56.3,53.1,29.83,West,272,0.0,0.0,89,0.00,,,0.00,VWS V14.01,2013-06-10 08:22:00,
2013-06-10 04:27:00,56.1,52.9,29.83,West,272,0.0,0.0,89,0.00,,,0.00,VWS V14.01,2013-06-10 08:27:00,
2013-06-10 04:32:00,56.1,52.9,29.83,West,272,0.0,0.0,89,0.00,,,0.00,VWS V14.01,2013-06-10 08:32:00,
2013-06-10 04:37:00,56.1,53.2,29.83,West,272,0.0,0.0,90,0.00,,,0.00,VWS V14.01,2013-06-10 08:37:00,
2013-06-10 04:42:00,56.1,53.2,29.83,West,272,0.0,0.0,90,0.00,,,0.00,VWS V14.01,2013-06-10 08:42:00,
2013-06-10 04:47:00,55.9,53.0,29.83,West,272,0.0,0.0,90,0.00,,,0.00,VWS V14.01,2013-06-10 08:47:00,
2013-06-10 04:52:00,55.9,53.0,29.83,West,272,0.0,0.0,90,0.00,,,0.00,VWS V14.01,2013-06-10 08:52:00,
2013-06-10 04:57:00,55.8,52.9,29.83,West,272,0.0,0.0,90,0.00,,,0.00,VWS V14.01,2013-06-10 08:57:00,
2013-06-10 05:02:00,55.8,52.9,29.83,West,272,0.0,0.0,90,0.00,,,0.00,VWS V14.01,2013-06-10 09:02:00,
2013-06-10 05:07:00,55.8,52.9,29.83,West,272,0.0,0.0,90,0.00,,,0.00,VWS V14.01,2013-06-10 09:07:00,
2013-06-10 05:12:00,55.8,52.9,29.83,West,272,0.0,0.0,90,0.00,,,0.00,VWS V14.01,2013-06-10 09:12:00,
2013-06-10 05:17:00,55.6,52.7,29.83,West,272,0.0,0.0,90,0.00,,,0.00,VWS V14.01,2013-06-10 09:17:00,
2013-06-10 05:22:00,55.6,52.7,29.83,West,272,0.0,0.0,90,0.00,,,0.00,VWS V14.01,2013-06-10 09:22:00,
2013-06-10 05:27:00,55.6,53.0,29.83,West,272,0.0,0.0,91,0.00,,,0.00,VWS V14.01,2013-06-10 09:27:00,
2013-06-10 05:32:00,55.4,52.8,29.83,West,272,0.0,0.0,91,0.00,,,0.00,VWS V14.01,2013-06-10 09:32:00,
2013-06-10 05:37:00,55.4,52.8,29.83,West,272,0.0,0.0,91,0.00,,,0.00,VWS V14.01,2013-06-10 09:37:00,
2013-06-10 05:42:00,55.4,52.8,29.83,West,272,0.0,0.0,91,0.00,,,0.00,VWS V14.01,2013-06-10 09:42:00,
2013-06-10 05:47:00,55.4,52.8,29.83,West,272,0.0,0.0,91,0.00,,,0.00,VWS V14.01,2013-06-10 09:47:00,
2013-06-10 05:52:00,55.4,52.8,29.83,West,272,0.0,0.0,91,0.00,,,0.00,VWS V14.01,2013-06-10 09:52:00,
2013-06-10 05:57:00,55.6,53.0,29.83,West,272,0.0,0.0,91,0.00,,,0.00,VWS V14.01,2013-06-10 09:57:00,
2013-06-10 06:02:00,55.8,53.2,29.83,West,272,0.0,0.0,91,0.00,,,0.00,VWS V14.01,2013-06-10 10:02:00,
2013-06-10 06:07:00,55.8,53.2,29.83,West,272,0.0,0.0,91,0.00,,,0.00,VWS V14.01,2013-06-10 10:07:00,
2013-06-10 06:12:00,55.9,53.4,29.83,West,272,0.0,0.0,91,0.00,,,0.00,VWS V14.01,2013-06-10 10:12:00,
2013-06-10 06:17:00,56.1,53.8,29.83,West,272,0.0,0.0,92,0.00,,,0.00,VWS V14.01,2013-06-10 10:17:00,
2013-06-10 06:22:00,56.3,54.0,29.83,West,272,0.0,0.0,92,0.00,,,0.00,VWS V14.01,2013-06-10 10:22:00,
2013-06-10 06:27:00,56.5,54.2,29.83,West,272,0.0,0.0,92,0.00,,,0.00,VWS V14.01,2013-06-10 10:27:00,
2013-06-10 06:32:00,56.8,54.5,29.83,West,272,0.0,0.0,92,0.00,,,0.00,VWS V14.01,2013-06-10 10:32:00,
2013-06-10 06:37:00,57.2,54.9,29.83,West,272,0.0,0.0,92,0.00,,,0.00,VWS V14.01,2013-06-10 10:37:00,
2013-06-10 06:42:00,57.2,54.9,29.83,West,272,0.0,0.0,92,0.00,,,0.00,VWS V14.01,2013-06-10 10:42:00,
2013-06-10 06:47:00,57.6,55.3,29.83,West,272,0.0,0.0,92,0.00,,,0.00,VWS V14.01,2013-06-10 10:47:00,
2013-06-10 06:52:00,57.9,55.6,29.83,West,272,0.0,0.0,92,0.00,,,0.00,VWS V14.01,2013-06-10 10:52:00,
2013-06-10 06:57:00,58.1,55.8,29.83,West,272,0.0,0.0,92,0.00,,,0.00,VWS V14.01,2013-06-10 10:57:00,
2013-06-10 07:02:00,58.5,56.5,29.83,West,272,0.0,0.0,93,0.00,,,0.00,VWS V14.01,2013-06-10 11:02:00,
2013-06-10 07:07:00,58.6,56.6,29.83,West,272,0.0,0.0,93,0.00,,,0.00,VWS V14.01,2013-06-10 11:07:00,
2013-06-10 07:12:00,59.0,56.7,29.85,West,272,0.0,0.0,92,0.00,,,0.00,VWS V14.01,2013-06-10 11:12:00,
2013-06-10 07:17:00,59.2,56.9,29.85,West,272,0.0,0.0,92,0.00,,,0.00,VWS V14.01,2013-06-10 11:17:00,
2013-06-10 07:22:00,59.5,57.2,29.85,West,272,0.0,0.0,92,0.00,,,0.00,VWS V14.01,2013-06-10 11:22:00,
2013-06-10 07:27:00,59.7,57.7,29.85,West,272,0.0,0.0,93,0.00,,,0.00,VWS V14.01,2013-06-10 11:27:00,
2013-06-10 07:32:00,60.1,58.0,29.85,West,272,0.0,0.0,93,0.00,,,0.00,VWS V14.01,2013-06-10 11:32:00,
2013-06-10 07:37:00,60.3,58.2,29.85,West,272,0.0,0.0,93,0.00,,,0.00,VWS V14.01,2013-06-10 11:37:00,
2013-06-10 07:42:00,60.6,58.6,29.85,West,272,0.0,0.0,93,0.00,,,0.00,VWS V14.01,2013-06-10 11:42:00,
2013-06-10 07:47:00,61.0,59.0,29.85,West,272,0.0,0.0,93,0.00,,,0.00,VWS V14.01,2013-06-10 11:47:00,
2013-06-10 07:52:00,61.2,59.1,29.85,West,272,0.0,0.0,93,0.00,,,0.00,VWS V14.01,2013-06-10 11:52:00,
2013-06-10 07:57:00,61.9,59.8,29.85,West,272,0.0,0.0,93,0.00,,,0.00,VWS V14.01,2013-06-10 11:57:00,
2013-06-10 08:02:00,62.2,60.2,29.85,West,272,0.0,0.0,93,0.00,,,0.00,VWS V14.01,2013-06-10 12:02:00,
2013-06-10 08:07:00,63.0,60.9,29.85,West,272,0.0,0.0,93,0.00,,,0.00,VWS V14.01,2013-06-10 12:07:00,
2013-06-10 08:12:00,63.7,61.6,29.85,West,271,0.0,0.0,93,0.00,,,0.00,VWS V14.01,2013-06-10 12:12:00,
2013-06-10 08:17:00,63.9,61.8,29.85,South,183,0.0,0.0,93,0.00,,,0.00,VWS V14.01,2013-06-10 12:17:00,
2013-06-10 08:22:00,64.9,62.6,29.85,South,184,0.0,0.0,92,0.00,,,0.00,VWS V14.01,2013-06-10 12:22:00,
2013-06-10 08:27:00,65.3,62.9,29.85,South,181,0.0,2.7,92,0.00,,,0.00,VWS V14.01,2013-06-10 12:27:00,
2013-06-10 08:32:00,65.8,63.5,29.85,SSW,197,0.0,0.0,92,0.00,,,0.00,VWS V14.01,2013-06-10 12:32:00,
2013-06-10 08:37:00,65.8,61.2,29.85,South,181,0.0,0.0,85,0.00,,,0.00,VWS V14.01,2013-06-10 12:37:00,
2013-06-10 08:42:00,66.4,60.7,29.85,South,189,0.0,0.0,82,0.00,,,0.00,VWS V14.01,2013-06-10 12:42:00,
2013-06-10 08:47:00,66.7,56.3,29.85,South,179,4.0,4.0,69,0.00,,,0.00,VWS V14.01,2013-06-10 12:47:00,
2013-06-10 08:52:00,66.9,56.8,29.85,SSW,193,2.7,2.7,70,0.00,,,0.00,VWS V14.01,2013-06-10 12:52:00,
2013-06-10 08:57:00,67.1,56.2,29.85,SSW,208,0.0,0.0,68,0.00,,,0.00,VWS V14.01,2013-06-10 12:57:00,
2013-06-10 09:02:00,67.5,56.1,29.85,SE,143,0.0,3.1,67,0.00,,,0.00,VWS V14.01,2013-06-10 13:02:00,
2013-06-10 09:07:00,67.6,54.6,29.85,SSE,152,4.0,5.4,63,0.00,,,0.00,VWS V14.01,2013-06-10 13:07:00,
2013-06-10 09:12:00,67.8,54.8,29.85,South,181,2.2,2.2,63,0.00,,,0.00,VWS V14.01,2013-06-10 13:12:00,
2013-06-10 09:17:00,68.2,55.5,29.85,SSW,202,3.6,3.6,64,0.00,,,0.00,VWS V14.01,2013-06-10 13:17:00,
2013-06-10 09:22:00,68.2,55.5,29.85,SSE,159,0.0,0.0,64,0.00,,,0.00,VWS V14.01,2013-06-10 13:22:00,
2013-06-10 09:27:00,68.5,53.7,29.85,SSE,148,0.0,0.0,59,0.00,,,0.00,VWS V14.01,2013-06-10 13:27:00,
2013-06-10 09:32:00,68.7,54.3,29.85,South,181,0.0,0.0,60,0.00,,,0.00,VWS V14.01,2013-06-10 13:32:00,
2013-06-10 09:37:00,68.9,52.6,29.85,SE,128,0.0,0.0,56,0.00,,,0.00,VWS V14.01,2013-06-10 13:37:00,
2013-06-10 09:42:00,69.3,53.9,29.85,SSE,154,0.0,0.0,58,0.00,,,0.00,VWS V14.01,2013-06-10 13:42:00,
2013-06-10 09:47:00,69.3,53.9,29.85,SSE,154,0.0,0.0,58,0.00,,,0.00,VWS V14.01,2013-06-10 13:47:00,
2013-06-10 09:52:00,69.4,53.6,29.85,SW,219,0.0,0.0,57,0.00,,,0.00,VWS V14.01,2013-06-10 13:52:00,
2013-06-10 09:57:00,69.4,54.0,29.85,SW,219,0.0,0.0,58,0.00,,,0.00,VWS V14.01,2013-06-10 13:57:00,
2013-06-10 10:02:00,69.4,53.1,29.85,SSW,203,0.0,0.0,56,0.00,,,0.00,VWS V14.01,2013-06-10 14:02:00,
2013-06-10 10:07:00,69.1,52.7,29.85,SSE,164,0.0,0.0,56,0.00,,,0.00,VWS V14.01,2013-06-10 14:07:00,
2013-06-10 10:12:00,69.1,52.7,29.85,South,189,0.0,0.0,56,0.00,,,0.00,VWS V14.01,2013-06-10 14:12:00,
2013-06-10 10:17:00,68.5,52.7,29.85,South,189,0.0,0.0,57,0.00,,,0.00,VWS V14.01,2013-06-10 14:17:00,
2013-06-10 10:22:00,68.4,53.0,29.85,SSW,193,0.0,0.0,58,0.00,,,0.00,VWS V14.01,2013-06-10 14:22:00,
2013-06-10 10:27:00,68.4,53.0,29.85,SW,220,0.0,0.0,58,0.00,,,0.00,VWS V14.01,2013-06-10 14:27:00,
2013-06-10 10:32:00,68.4,53.0,29.85,SW,234,0.0,0.0,58,0.00,,,0.00,VWS V14.01,2013-06-10 14:32:00,
2013-06-10 10:37:00,68.2,53.3,29.85,SSW,192,0.0,0.0,59,0.00,,,0.00,VWS V14.01,2013-06-10 14:37:00,
2013-06-10 10:42:00,68.0,53.2,29.85,SSW,192,0.0,0.0,59,0.00,,,0.00,VWS V14.01,2013-06-10 14:42:00,
2013-06-10 10:47:00,68.0,53.6,29.85,SSW,192,0.0,0.0,60,0.00,,,0.00,VWS V14.01,2013-06-10 14:47:00,
2013-06-10 10:52:00,68.2,53.8,29.85,SSW,192,0.0,0.0,60,0.00,,,0.00,VWS V14.01,2013-06-10 14:52:00,
2013-06-10 10:57:00,68.2,54.2,29.85,SSW,192,0.0,0.0,61,0.00,,,0.00,VWS V14.01,2013-06-10 14:57:00,
2013-06-10 11:02:00,68.2,54.2,29.85,SSW,192,0.0,0.0,61,0.00,,,0.00,VWS V14.01,2013-06-10 15:02:00,
2013-06-10 11:07:00,68.4,54.0,29.85,SSW,195,0.0,0.0,60,0.00,,,0.00,VWS V14.01,2013-06-10 15:07:00,
2013-06-10 11:12:00,68.5,53.7,29.85,South,177,0.0,0.0,59,0.00,,,0.00,VWS V14.01,2013-06-10 15:12:00,
2013-06-10 11:17:00,68.5,53.7,29.85,SSW,199,0.0,0.0,59,0.00,,,0.00,VWS V14.01,2013-06-10 15:17:00,
2013-06-10 11:22:00,68.7,53.8,29.85,SSW,199,0.0,0.0,59,0.00,,,0.00,VWS V14.01,2013-06-10 15:22:00,
2013-06-10 11:27:00,68.5,53.7,29.85,SW,215,0.0,0.0,59,0.00,,,0.00,VWS V14.01,2013-06-10 15:27:00,
2013-06-10 11:32:00,68.5,53.2,29.85,SW,215,0.0,0.0,58,0.00,,,0.00,VWS V14.01,2013-06-10 15:32:00,
2013-06-10 11:37:00,68.4,53.5,29.85,SSW,205,0.0,0.0,59,0.00,,,0.00,VWS V14.01,2013-06-10 15:37:00,
2013-06-10 11:42:00,68.4,53.5,29.85,South,187,0.0,0.0,59,0.00,,,0.00,VWS V14.01,2013-06-10 15:42:00,
2013-06-10 11:47:00,68.2,53.3,29.85,South,185,0.0,0.0,59,0.00,,,0.00,VWS V14.01,2013-06-10 15:47:00,
2013-06-10 11:52:00,68.0,53.2,29.85,SSE,159,0.0,0.0,59,0.00,,,0.00,VWS V14.01,2013-06-10 15:52:00,
2013-06-10 11:57:00,67.6,52.8,29.85,SSE,159,0.0,0.0,59,0.00,,,0.00,VWS V14.01,2013-06-10 15:57:00,
2013-06-10 12:02:00,67.5,53.1,29.85,SSE,159,0.0,0.0,60,0.00,,,0.00,VWS V14.01,2013-06-10 16:02:00,
2013-06-10 12:07:00,67.5,53.6,29.85,SSW,193,0.0,0.0,61,0.00,,,0.00,VWS V14.01,2013-06-10 16:07:00,
2013-06-10 12:12:00,67.5,53.6,29.85,SSW,193,0.0,0.0,61,0.00,,,0.00,VWS V14.01,2013-06-10 16:12:00,
2013-06-10 12:17:00,66.9,53.9,29.85,SSW,193,0.0,0.0,63,0.00,,,0.00,VWS V14.01,2013-06-10 16:17:00,
2013-06-10 12:22:00,66.7,54.2,29.85,SSW,192,0.0,0.0,64,0.00,,,0.00,VWS V14.01,2013-06-10 16:22:00,
2013-06-10 12:27:00,66.7,54.2,29.85,SSW,192,0.0,0.0,64,0.00,,,0.00,VWS V14.01,2013-06-10 16:27:00,
2013-06-10 12:32:00,66.7,54.2,29.85,SSW,192,0.0,0.0,64,0.00,,,0.00,VWS V14.01,2013-06-10 16:32:00,
2013-06-10 12:37:00,65.8,55.4,29.85,SSW,192,0.0,0.0,69,0.00,,,0.00,VWS V14.01,2013-06-10 16:37:00,
2013-06-10 12:42:00,65.8,56.2,29.85,SSW,192,0.0,0.0,71,0.00,,,0.00,VWS V14.01,2013-06-10 16:42:00,
2013-06-10 12:47:00,65.8,56.2,29.85,SSE,160,0.0,0.0,71,0.00,,,0.00,VWS V14.01,2013-06-10 16:47:00,
2013-06-10 12:52:00,65.8,56.6,29.85,SSE,160,0.0,0.0,72,0.00,,,0.00,VWS V14.01,2013-06-10 16:52:00,
2013-06-10 12:57:00,65.8,57.0,29.85,South,179,0.0,2.2,73,0.00,,,0.00,VWS V14.01,2013-06-10 16:57:00,
2013-06-10 13:02:00,66.0,57.9,29.85,South,185,0.0,0.0,75,0.00,,,0.00,VWS V14.01,2013-06-10 17:02:00,
2013-06-10 13:07:00,66.2,57.7,29.85,SSE,162,0.0,0.0,74,0.00,,,0.00,VWS V14.01,2013-06-10 17:07:00,
2013-06-10 13:12:00,66.4,57.8,29.85,South,173,0.0,0.0,74,0.00,,,0.00,VWS V14.01,2013-06-10 17:12:00,
2013-06-10 13:17:00,66.4,58.2,29.85,SSW,196,0.0,0.0,75,0.00,,,0.00,VWS V14.01,2013-06-10 17:17:00,
2013-06-10 13:22:00,66.4,58.2,29.85,SSW,198,0.0,0.0,75,0.00,,,0.00,VWS V14.01,2013-06-10 17:22:00,
2013-06-10 13:27:00,66.0,58.2,29.83,South,185,0.0,0.0,76,0.00,,,0.00,VWS V14.01,2013-06-10 17:27:00,
2013-06-10 13:32:00,66.0,58.2,29.83,South,185,0.0,0.0,76,0.00,,,0.00,VWS V14.01,2013-06-10 17:32:00,
2013-06-10 13:37:00,66.0,58.2,29.83,South,177,0.0,0.0,76,0.00,,,0.00,VWS V14.01,2013-06-10 17:37:00,
2013-06-10 13:42:00,66.0,58.2,29.83,South,187,0.0,0.0,76,0.00,,,0.00,VWS V14.01,2013-06-10 17:42:00,
2013-06-10 13:47:00,66.2,58.8,29.83,South,186,0.0,0.0,77,0.00,,,0.00,VWS V14.01,2013-06-10 17:47:00,
2013-06-10 13:52:00,66.2,58.8,29.83,South,188,0.0,0.0,77,0.00,,,0.00,VWS V14.01,2013-06-10 17:52:00,
2013-06-10 13:57:00,66.2,58.8,29.83,South,188,0.0,0.0,77,0.00,,,0.00,VWS V14.01,2013-06-10 17:57:00,
2013-06-10 14:02:00,66.2,58.8,29.83,South,180,0.0,0.0,77,0.00,,,0.00,VWS V14.01,2013-06-10 18:02:00,
2013-06-10 14:07:00,66.2,59.2,29.83,SSE,155,0.0,0.0,78,0.00,,,0.00,VWS V14.01,2013-06-10 18:07:00,
2013-06-10 14:12:00,66.2,59.2,29.83,South,177,0.0,0.0,78,0.00,,,0.00,VWS V14.01,2013-06-10 18:12:00,
2013-06-10 14:17:00,66.0,59.3,29.83,South,191,0.0,0.0,79,0.00,,,0.00,VWS V14.01,2013-06-10 18:17:00,
2013-06-10 14:22:00,66.0,59.3,29.83,South,186,0.0,0.0,79,0.00,,,0.00,VWS V14.01,2013-06-10 18:22:00,
2013-06-10 14:27:00,66.0,59.3,29.83,South,186,0.0,0.0,79,0.00,,,0.00,VWS V14.01,2013-06-10 18:27:00,
2013-06-10 14:32:00,65.8,59.5,29.83,WSW,237,0.0,0.0,80,0.00,,,0.00,VWS V14.01,2013-06-10 18:32:00,
2013-06-10 14:37:00,65.8,59.5,29.83,South,182,0.0,0.0,80,0.00,,,0.00,VWS V14.01,2013-06-10 18:37:00,
2013-06-10 14:42:00,65.7,59.7,29.83,South,181,0.0,0.0,81,0.00,,,0.00,VWS V14.01,2013-06-10 18:42:00,
2013-06-10 14:47:00,65.7,59.7,29.83,SSW,199,0.0,0.0,81,0.00,,,0.00,VWS V14.01,2013-06-10 18:47:00,
2013-06-10 14:52:00,65.7,59.7,29.83,SSW,199,0.0,0.0,81,0.00,,,0.00,VWS V14.01,2013-06-10 18:52:00,
2013-06-10 14:57:00,65.7,60.0,29.83,SSW,199,0.0,0.0,82,0.00,,,0.00,VWS V14.01,2013-06-10 18:57:00,
2013-06-10 15:02:00,65.8,60.2,29.83,SSW,199,0.0,0.0,82,0.00,,,0.00,VWS V14.01,2013-06-10 19:02:00,
2013-06-10 15:07:00,65.8,60.5,29.83,SSW,198,0.0,0.0,83,0.00,,,0.00,VWS V14.01,2013-06-10 19:07:00,
2013-06-10 15:12:00,65.8,60.5,29.83,SSW,198,0.0,0.0,83,0.00,,,0.00,VWS V14.01,2013-06-10 19:12:00,
2013-06-10 15:17:00,65.8,60.9,29.83,SSW,198,0.0,0.0,84,0.00,,,0.00,VWS V14.01,2013-06-10 19:17:00,
2013-06-10 15:22:00,65.8,60.9,29.83,SSW,198,0.0,0.0,84,0.00,,,0.00,VWS V14.01,2013-06-10 19:22:00,
2013-06-10 15:27:00,65.8,60.9,29.83,SSW,198,0.0,0.0,84,0.00,,,0.00,VWS V14.01,2013-06-10 19:27:00,
2013-06-10 15:32:00,65.7,61.0,29.83,SSW,198,0.0,0.0,85,0.00,,,0.00,VWS V14.01,2013-06-10 19:32:00,
2013-06-10 15:37:00,65.7,61.0,29.83,SSW,198,0.0,0.0,85,0.00,,,0.00,VWS V14.01,2013-06-10 19:37:00,
2013-06-10 15:42:00,65.7,61.0,29.83,SSW,198,0.0,0.0,85,0.04,,,0.04,VWS V14.01,2013-06-10 19:42:00,
2013-06-10 15:47:00,65.7,61.4,29.83,SSW,198,0.0,0.0,86,0.04,,,0.04,VWS V14.01,2013-06-10 19:47:00,
2013-06-10 15:52:00,65.7,61.4,29.83,South,190,0.0,0.0,86,0.04,,,0.04,VWS V14.01,2013-06-10 19:52:00,
2013-06-10 15:57:00,65.7,61.4,29.83,South,190,0.0,0.0,86,0.04,,,0.04,VWS V14.01,2013-06-10 19:57:00,
2013-06-10 16:02:00,65.7,61.7,29.83,SSW,203,0.0,0.0,87,0.04,,,0.04,VWS V14.01,2013-06-10 20:02:00,
2013-06-10 16:07:00,65.7,61.7,29.83,SSW,203,0.0,0.0,87,0.04,,,0.04,VWS V14.01,2013-06-10 20:07:00,
2013-06-10 16:12:00,65.7,61.7,29.80,South,179,0.0,0.0,87,0.04,,,0.04,VWS V14.01,2013-06-10 20:12:00,
2013-06-10 16:17:00,65.5,61.5,29.80,South,185,0.0,0.0,87,0.04,,,0.04,VWS V14.01,2013-06-10 20:17:00,
2013-06-10 16:22:00,65.5,61.5,29.80,South,186,0.0,0.0,87,0.04,,,0.04,VWS V14.01,2013-06-10 20:22:00,
2013-06-10 16:27:00,65.5,61.8,29.80,South,186,0.0,0.0,88,0.04,,,0.04,VWS V14.01,2013-06-10 20:27:00,
2013-06-10 16:32:00,65.5,61.8,29.80,South,185,0.0,0.0,88,0.04,,,0.04,VWS V14.01,2013-06-10 20:32:00,
2013-06-10 16:37:00,65.5,61.8,29.80,NNW,330,0.0,0.0,88,0.04,,,0.04,VWS V14.01,2013-06-10 20:37:00,
2013-06-10 16:42:00,65.5,61.8,29.80,South,184,0.0,0.0,88,0.00,,,0.04,VWS V14.01,2013-06-10 20:42:00,
2013-06-10 16:47:00,65.3,62.0,29.80,South,180,0.0,0.0,89,0.00,,,0.04,VWS V14.01,2013-06-10 20:47:00,
2013-06-10 16:52:00,65.3,62.0,29.80,SSE,162,0.0,0.0,89,0.00,,,0.04,VWS V14.01,2013-06-10 20:52:00,
2013-06-10 16:57:00,65.1,61.8,29.77,South,187,0.0,0.0,89,0.00,,,0.04,VWS V14.01,2013-06-10 20:57:00,
2013-06-10 17:02:00,65.1,61.8,29.77,South,189,0.0,0.0,89,0.00,,,0.04,VWS V14.01,2013-06-10 21:02:00,
2013-06-10 17:07:00,64.9,61.6,29.77,South,189,0.0,0.0,89,0.00,,,0.04,VWS V14.01,2013-06-10 21:07:00,
2013-06-10 17:12:00,64.8,61.8,29.77,South,189,0.0,0.0,90,0.00,,,0.04,VWS V14.01,2013-06-10 21:12:00,
2013-06-10 17:17:00,64.8,61.8,29.77,South,189,0.0,0.0,90,0.00,,,0.04,VWS V14.01,2013-06-10 21:17:00,
2013-06-10 17:22:00,64.6,61.6,29.77,South,189,0.0,0.0,90,0.00,,,0.04,VWS V14.01,2013-06-10 21:22:00,
2013-06-10 17:27:00,64.4,61.4,29.77,South,189,0.0,0.0,90,0.04,,,0.08,VWS V14.01,2013-06-10 21:27:00,
2013-06-10 17:32:00,64.2,61.5,29.77,South,189,0.0,0.0,91,0.04,,,0.08,VWS V14.01,2013-06-10 21:32:00,
2013-06-10 17:37:00,64.2,61.5,29.77,South,189,0.0,0.0,91,0.04,,,0.08,VWS V14.01,2013-06-10 21:37:00,
2013-06-10 17:42:00,63.9,61.2,29.77,SSW,194,0.0,0.0,91,0.04,,,0.08,VWS V14.01,2013-06-10 21:42:00,
2013-06-10 17:47:00,63.9,61.2,29.77,SSW,194,0.0,0.0,91,0.04,,,0.08,VWS V14.01,2013-06-10 21:47:00,
2013-06-10 17:52:00,63.9,61.2,29.77,SSW,194,0.0,0.0,91,0.04,,,0.08,VWS V14.01,2013-06-10 21:52:00,
2013-06-10 17:57:00,63.5,60.8,29.77,SW,222,0.0,0.0,91,0.04,,,0.08,VWS V14.01,2013-06-10 21:57:00,
2013-06-10 18:02:00,63.5,60.8,29.77,SW,222,0.0,0.0,91,0.08,,,0.12,VWS V14.01,2013-06-10 22:02:00,
2013-06-10 18:07:00,63.5,60.8,29.77,SW,222,0.0,0.0,91,0.08,,,0.12,VWS V14.01,2013-06-10 22:07:00,
2013-06-10 18:12:00,63.3,61.0,29.77,South,174,0.0,0.0,92,0.08,,,0.12,VWS V14.01,2013-06-10 22:12:00,
2013-06-10 18:17:00,63.3,61.0,29.77,South,174,0.0,0.0,92,0.08,,,0.12,VWS V14.01,2013-06-10 22:17:00,
2013-06-10 18:22:00,63.3,61.0,29.77,South,174,0.0,0.0,92,0.08,,,0.12,VWS V14.01,2013-06-10 22:22:00,
2013-06-10 18:27:00,63.1,60.8,29.77,South,174,0.0,0.0,92,0.04,,,0.12,VWS V14.01,2013-06-10 22:27:00,
2013-06-10 18:32:00,63.0,60.6,29.77,South,174,0.0,0.0,92,0.04,,,0.12,VWS V14.01,2013-06-10 22:32:00,
2013-06-10 18:37:00,63.0,60.6,29.77,South,174,0.0,0.0,92,0.04,,,0.12,VWS V14.01,2013-06-10 22:37:00,
2013-06-10 18:42:00,63.0,60.6,29.77,South,174,0.0,0.0,92,0.04,,,0.12,VWS V14.01,2013-06-10 22:42:00,
2013-06-10 18:47:00,63.0,60.6,29.77,South,174,0.0,0.0,92,0.04,,,0.12,VWS V14.01,2013-06-10 22:47:00,
2013-06-10 18:52:00,62.8,60.4,29.77,South,174,0.0,0.0,92,0.12,,,0.20,VWS V14.01,2013-06-10 22:52:00,
2013-06-10 18:57:00,62.8,60.4,29.77,South,174,0.0,0.0,92,0.12,,,0.20,VWS V14.01,2013-06-10 22:57:00,
2013-06-10 19:02:00,62.8,60.4,29.77,South,174,0.0,0.0,92,0.16,,,0.24,VWS V14.01,2013-06-10 23:02:00,
2013-06-10 19:07:00,62.6,60.2,29.77,South,174,0.0,0.0,92,0.12,,,0.24,VWS V14.01,2013-06-10 23:07:00,
2013-06-10 19:12:00,62.8,60.7,29.77,South,174,0.0,0.0,93,0.12,,,0.24,VWS V14.01,2013-06-10 23:12:00,
2013-06-10 19:17:00,62.6,60.5,29.77,South,174,0.0,0.0,93,0.12,,,0.24,VWS V14.01,2013-06-10 23:17:00,
2013-06-10 19:22:00,62.6,60.5,29.77,South,174,0.0,0.0,93,0.16,,,0.28,VWS V14.01,2013-06-10 23:22:00,
2013-06-10 19:27:00,62.6,60.5,29.77,South,174,0.0,0.0,93,0.16,,,0.28,VWS V14.01,2013-06-10 23:27:00,
2013-06-10 19:32:00,62.6,60.5,29.77,South,174,0.0,0.0,93,0.20,,,0.31,VWS V14.01,2013-06-10 23:32:00,
2013-06-10 19:37:00,62.6,60.5,29.77,South,174,0.0,0.0,93,0.20,,,0.31,VWS V14.01,2013-06-10 23:37:00,
2013-06-10 19:42:00,62.6,60.5,29.74,South,174,0.0,0.0,93,0.20,,,0.31,VWS V14.01,2013-06-10 23:42:00,
2013-06-10 19:47:00,62.6,60.5,29.74,South,174,0.0,0.0,93,0.24,,,0.35,VWS V14.01,2013-06-10 23:47:00,
2013-06-10 19:52:00,62.4,60.7,29.74,South,174,0.0,0.0,94,0.16,,,0.35,VWS V14.01,2013-06-10 23:52:00,
2013-06-10 19:57:00,62.4,60.7,29.74,SSW,195,0.0,0.0,94,0.16,,,0.35,VWS V14.01,2013-06-10 23:57:00,
2013-06-10 20:02:00,62.4,60.7,29.74,SSW,195,0.0,0.0,94,0.12,,,0.35,VWS V14.01,2013-06-11 00:02:00,
2013-06-10 20:07:00,62.2,60.5,29.74,SSW,207,0.0,0.0,94,0.12,,,0.35,VWS V14.01,2013-06-11 00:07:00,
2013-06-10 20:12:00,62.2,60.5,29.74,SSW,207,0.0,0.0,94,0.16,,,0.39,VWS V14.01,2013-06-11 00:12:00,
2013-06-10 20:17:00,62.2,60.5,29.74,SSW,207,0.0,0.0,94,0.16,,,0.39,VWS V14.01,2013-06-11 00:17:00,
2013-06-10 20:22:00,62.2,60.5,29.74,South,185,0.0,0.0,94,0.12,,,0.39,VWS V14.01,2013-06-11 00:22:00,
2013-06-10 20:27:00,62.1,60.3,29.74,South,179,2.2,2.2,94,0.12,,,0.39,VWS V14.01,2013-06-11 00:27:00,
2013-06-10 20:32:00,62.1,60.3,29.74,SSE,166,0.0,0.0,94,0.08,,,0.39,VWS V14.01,2013-06-11 00:32:00,
2013-06-10 20:37:00,61.9,60.4,29.74,SSW,197,0.0,0.0,95,0.08,,,0.39,VWS V14.01,2013-06-11 00:37:00,
2013-06-10 20:42:00,61.9,60.4,29.71,SSE,163,0.0,0.0,95,0.12,,,0.43,VWS V14.01,2013-06-11 00:42:00,
2013-06-10 20:47:00,61.5,60.1,29.71,South,179,0.0,0.0,95,0.08,,,0.43,VWS V14.01,2013-06-11 00:47:00,
2013-06-10 20:52:00,61.3,59.9,29.71,South,179,0.0,0.0,95,0.08,,,0.43,VWS V14.01,2013-06-11 00:52:00,
2013-06-10 20:57:00,61.3,59.9,29.71,SSE,168,0.0,0.0,95,0.08,,,0.43,VWS V14.01,2013-06-11 00:57:00,
2013-06-10 21:02:00,61.2,59.7,29.71,South,184,0.0,0.0,95,0.08,,,0.43,VWS V14.01,2013-06-11 01:02:00,
2013-06-10 21:07:00,61.2,59.7,29.71,South,183,0.0,0.0,95,0.08,,,0.43,VWS V14.01,2013-06-11 01:07:00,
2013-06-10 21:12:00,61.0,59.5,29.71,South,187,0.0,0.0,95,0.04,,,0.43,VWS V14.01,2013-06-11 01:12:00,
2013-06-10 21:17:00,60.8,59.4,29.71,South,170,0.0,0.0,95,0.04,,,0.43,VWS V14.01,2013-06-11 01:17:00,
2013-06-10 21:22:00,60.6,59.5,29.71,SSW,208,0.0,0.0,96,0.08,,,0.47,VWS V14.01,2013-06-11 01:22:00,
2013-06-10 21:27:00,60.6,59.5,29.71,SSW,208,0.0,0.0,96,0.08,,,0.47,VWS V14.01,2013-06-11 01:27:00,
2013-06-10 21:32:00,60.6,59.5,29.71,SSW,208,0.0,0.0,96,0.08,,,0.47,VWS V14.01,2013-06-11 01:32:00,
2013-06-10 21:37:00,60.6,59.5,29.71,South,190,0.0,0.0,96,0.08,,,0.47,VWS V14.01,2013-06-11 01:37:00,
2013-06-10 21:42:00,60.4,59.3,29.71,South,189,0.0,0.0,96,0.04,,,0.47,VWS V14.01,2013-06-11 01:42:00,
2013-06-10 21:47:00,60.3,59.1,29.71,South,181,2.7,3.1,96,0.04,,,0.47,VWS V14.01,2013-06-11 01:47:00,
2013-06-10 21:52:00,60.1,58.9,29.71,South,184,0.0,0.0,96,0.12,,,0.55,VWS V14.01,2013-06-11 01:52:00,
2013-06-10 21:57:00,59.9,58.8,29.71,SSW,198,0.0,0.0,96,0.12,,,0.55,VWS V14.01,2013-06-11 01:57:00,
2013-06-10 22:02:00,59.9,58.8,29.71,SSW,196,0.0,0.0,96,0.16,,,0.59,VWS V14.01,2013-06-11 02:02:00,
2013-06-10 22:07:00,59.9,58.8,29.71,SSW,196,0.0,0.0,96,0.16,,,0.59,VWS V14.01,2013-06-11 02:07:00,
2013-06-10 22:12:00,59.9,58.8,29.68,South,191,0.0,0.0,96,0.16,,,0.59,VWS V14.01,2013-06-11 02:12:00,
2013-06-10 22:17:00,59.9,59.0,29.68,South,183,0.0,0.0,97,0.20,,,0.63,VWS V14.01,2013-06-11 02:17:00,
2013-06-10 22:22:00,59.7,58.9,29.68,South,182,0.0,0.0,97,0.16,,,0.63,VWS V14.01,2013-06-11 02:22:00,
2013-06-10 22:27:00,59.7,58.9,29.68,South,182,0.0,0.0,97,0.16,,,0.63,VWS V14.01,2013-06-11 02:27:00,
2013-06-10 22:32:00,59.7,58.9,29.68,SSW,192,0.0,0.0,97,0.16,,,0.63,VWS V14.01,2013-06-11 02:32:00,
2013-06-10 22:37:00,59.7,58.9,29.68,SSW,192,0.0,0.0,97,0.20,,,0.67,VWS V14.01,2013-06-11 02:37:00,
2013-06-10 22:42:00,59.7,58.9,29.68,SSE,165,0.0,2.2,97,0.20,,,0.67,VWS V14.01,2013-06-11 02:42:00,
2013-06-10 22:47:00,59.5,58.7,29.68,WNW,294,0.0,0.0,97,0.24,,,0.71,VWS V14.01,2013-06-11 02:47:00,
2013-06-10 22:52:00,59.5,58.7,29.68,SW,233,0.0,0.0,97,0.16,,,0.71,VWS V14.01,2013-06-11 02:52:00,
2013-06-10 22:57:00,59.5,58.7,29.68,SW,233,0.0,0.0,97,0.16,,,0.71,VWS V14.01,2013-06-11 02:57:00,
2013-06-10 23:02:00,59.5,58.7,29.68,SSE,164,0.0,0.0,97,0.16,,,0.75,VWS V14.01,2013-06-11 03:02:00,
2013-06-10 23:07:00,59.5,58.7,29.68,South,184,0.0,0.0,97,0.16,,,0.75,VWS V14.01,2013-06-11 03:07:00,
2013-06-10 23:12:00,59.5,58.7,29.68,SSE,168,0.0,0.0,97,0.16,,,0.75,VWS V14.01,2013-06-11 03:12:00,
2013-06-10 23:17:00,59.4,58.5,29.68,SSE,168,0.0,0.0,97,0.12,,,0.75,VWS V14.01,2013-06-11 03:17:00,
2013-06-10 23:22:00,59.4,58.5,29.68,South,172,0.0,0.0,97,0.12,,,0.75,VWS V14.01,2013-06-11 03:22:00,
2013-06-10 23:27:00,59.4,58.5,29.68,South,189,0.0,0.0,97,0.28,,,0.91,VWS V14.01,2013-06-11 03:27:00,
2013-06-10 23:32:00,59.4,58.5,29.68,South,189,0.0,0.0,97,0.28,,,0.91,VWS V14.01,2013-06-11 03:32:00,
2013-06-10 23:37:00,59.4,58.5,29.68,South,191,0.0,0.0,97,0.24,,,0.91,VWS V14.01,2013-06-11 03:37:00,
2013-06-10 23:42:00,59.4,58.5,29.68,South,191,0.0,0.0,97,0.31,,,0.98,VWS V14.01,2013-06-11 03:42:00,
2013-06-10 23:47:00,59.4,58.5,29.68,South,191,0.0,0.0,97,0.28,,,0.98,VWS V14.01,2013-06-11 03:47:00,
2013-06-10 23:52:00,59.4,58.5,29.68,South,171,0.0,0.0,97,0.28,,,0.98,VWS V14.01,2013-06-11 03:52:00,
2013-06-10 23:57:00,59.4,58.5,29.68,South,171,0.0,0.0,97,0.28,,,0.98,VWS V14.01,2013-06-11 03:57:00,